Tracking 32932 objects as of 14-Jan-2026
HD Live streaming from Space Station
objects crossing your sky now

LEMUR 2 AMANDA-SVANTE

Track LEMUR 2 AMANDA-SVANTE now!
10-day predictions
LEMUR 2 AMANDA-SVANTE is classified as:


NORAD ID: 48269
Int'l Code: 2021-034B
Perigee: 495.0 km
Apogee: 500.1 km
Inclination: 97.6 °
Period: 94.4 minutes
Semi major axis: 6868 km
RCS: Unknown
Launch date: April 29, 2021
Source: United States (US)
Launch site: FRENCH GUIANA (FRGUI)
Your satellite tracking list
Your tracking list is empty




NASA's NSSDC Master Catalog

Two Line Element Set (TLE):
1 48269U 21034B   26014.44501549  .00012864  00000-0  51605-3 0  9995
2 48269  97.5940  89.6462 0003675  82.5063 277.6592 15.25125759257559
Source of the keplerian elements: AFSPC